Voltar ao catálogo

STARLINK-4491

AtivoComunicaçõesVLEO
NORAD 53408·PAYLOAD·🇺🇸 United States

Lançado Aug 10, 2022 de Cape Canaveral Space Force Station

Loading…

Próximas Passagens (próximas 24 horas)

TLE

AtualizadoSource: CelesTrak SupGP

Época: Sep 14, 2026, 21:34 UTC

1 53408C 22097W   26257.89909722  .00201350  00000+0  97100-2 0  2574
2 53408  53.1604 343.5957 0001290  85.3102 199.4583 15.18090042    18

Acompanhe STARLINK-4491 em tempo real com AllMySat

Download on the App Store